Location: Dugenta
(41.1333°N, 14.4500°E)
Time: 14:19:53
(UTC+00:00)

SME Rocket - Pass Details

Date: 03 March 2021
Orbit: 550 x 2652 km, 99.9° (Epoch: 20 April)

Event Time Altitude Azimuth Distance (km) Brightness Sun altitude
Rises 19:08:14 0° 13° (NNE) 4,861 7.7 -25.6°
Reaches altitude 10° 19:11:42 10° 11° (N) 3,551 6.9 -26.2°
Maximum altitude 19:19:28 67° 291° (WNW) 1,092 4.3 -27.6°
Drops below altitude 10° 19:24:30 10° 209° (SSW) 2,339 6.1 -28.6°
Sets 19:26:25 0° 207° (SSW) 3,108 6.8 -28.9°
